GW0571 Weather Reports


time (UTC)temp
C
wind
direction
speed
KPH
gust
KPH
rain 1hr
cm
rain 24hr
cm
rain mn
cm
humidity
%
barometer
mb
20260506050954 10 126 0.0 4.8 0.00 0.00 0.00 89 1008.9
20260506050452 10 86 1.6 4.8 0.00 0.00 0.00 90 1009.2
20260506044942 10 96 1.6 4.8 0.00 0.00 0.00 90 1009.2
20260506044441 10 336 0.0 4.8 0.00 0.00 0.00 90 1009.2
20260506043937 10 89 0.0 3.2 0.00 0.00 0.00 89 1009.5
20260506043434 10 30 1.6 3.2 0.00 0.00 0.00 89 1009.5
20260506042932 10 6 0.0 3.2 0.00 0.00 0.00 90 1009.1
20260506042431 10 19 0.0 3.2 0.00 0.00 0.00 90 1009.0
20260506041929 10 86 3.2 4.8 0.00 0.00 0.00 90 1009.1
20260506041426 10 93 3.2 4.8 0.00 0.00 0.00 89
20260506040923 10 89 0.0 4.8 0.00 0.00 0.00 89
20260506040421 10 80 3.2 4.8 0.00 0.00 0.00 89
20260506035917 10 72 0.0 4.8 0.00 0.10 0.10 89
20260506035415 10 88 3.2 4.8 0.00 0.10 0.10 89
20260506034911 10 29 0.0 4.8 0.00 0.10 0.10 90
20260506034408 10 83 1.6 3.2 0.00 0.10 0.10 90
20260506033905 10 89 3.2 4.8 0.00 0.10 0.10 90
20260506033403 10 107 1.6 3.2 0.00 0.10 0.10 89
20260506032859 10 20 0.0 6.4 0.00 0.10 0.10 89
20260506032356 11 12 1.6 1.6 0.00 0.10 0.10 89
20260506031853 11 269 0.0 4.8 0.00 0.10 0.10 88
20260506031350 11 53 4.8 4.8 0.00 0.10 0.10 88
20260506030848 11 252 0.0 4.8 0.00 0.10 0.10 87
20260506030346 11 314 0.0 3.2 0.00 0.10 0.10 87
20260506025842 11 10 3.2 8.0 0.00 0.10 0.10 86
20260506025338 11 3 3.2 9.7 0.00 0.10 0.10 85
20260506024836 11 343 4.8 8.0 0.00 0.10 0.10 85
20260506024333 11 37 3.2 11.3 0.00 0.10 0.10 85
20260506023829 12 353 3.2 16.1 0.00 0.10 0.10 84
20260506023325 12 6 4.8 9.7 0.00 0.10 0.10 84
20260506022822 12 6 3.2 12.9 0.00 0.10 0.10 84
20260506022320 12 13 4.8 14.5 0.00 0.10 0.10 83
20260506021818 12 332 6.4 14.5 0.00 0.10 0.10 83
20260506021315 12 342 6.4 12.9 0.00 0.10 0.10 84
20260506020811 12 339 4.8 9.7 0.00 0.10 0.10 83
20260506020309 13 345 3.2 9.7 0.00 0.10 0.10 85
20260506015807 13 324 4.8 9.7 0.00 0.10 0.10 85
20260506015306 13 320 3.2 8.0 0.00 0.10 0.10 85
20260506014801 14 356 8.0 14.5 0.00 0.10 0.10 88 1008.4
20260506014257 14 332 3.2 4.8 0.00 0.10 0.10 88 1008.4
20260506013754 14 338 0.0 0.0 0.00 0.10 0.10 88 1008.4
20260506013251 14 313 0.0 4.8 0.00 0.10 0.10 87 1008.4
20260506012748 15 332 0.0 8.0 0.00 0.10 0.10 86 1008.4
20260506012245 15 335 3.2 9.7 0.00 0.10 0.10 86 1008.4
20260506011742 15 3 4.8 8.0 0.00 0.10 0.10 85 1008.4
20260506011238 15 42 4.8 9.7 0.00 0.10 0.10 86 1008.4
20260506010737 15 356 0.0 8.0 0.00 0.10 0.10 85 1008.4
20260506010234 15 93 3.2 8.0 0.00 0.10 0.10 85 1008.4
20260506005731 15 315 3.2 6.4 0.00 0.10 0.10 85 1008.4
20260506005228 15 318 1.6 8.0 0.00 0.10 0.10 86 1008.2
20260506004723 15 298 3.2 4.8 0.00 0.10 0.10 89 1008.4
20260506004221 15 340 1.6 4.8 0.00 0.10 0.10 91 1007.9
20260506003717 15 323 0.0 3.2 0.00 0.10 0.10 92 1008.0
20260506003214 15 8 3.2 3.2 0.00 0.10 0.10 91 1007.8
20260506002709 15 37 0.0 3.2 0.00 0.10 0.10 90 1007.9
20260506002206 15 120 1.6 3.2 0.00 0.10 0.10 91 1007.8
20260506001702 15 97 1.6 1.6 0.00 0.10 0.10 91 1007.5
20260506001200 15 37 0.0 1.6 0.00 0.10 0.10 90 1007.7
20260506000656 15 37 0.0 1.6 0.00 0.10 0.10 89 1007.7
20260506000154 15 129 0.0 1.6 0.00 0.10 0.10 87 1007.6
20260505235652 15 135 0.0 3.2 0.00 0.10 0.10 87 1007.5
20260505235149 16 92 1.6 3.2 0.00 0.10 0.10 86 1007.5
20260505234645 16 124 3.2 3.2 0.00 0.10 0.10 85 1007.5
20260505234142 16 114 1.6 4.8 0.00 0.10 0.10 86 1007.6
20260505233639 16 111 1.6 3.2 0.00 0.10 0.10 88 1007.5
20260505233137 16 32 0.0 0.0 0.00 0.10 0.10 87 1007.6
20260505232634 16 47 0.0 1.6 0.00 0.10 0.10 86 1007.7
20260505232132 16 246 0.0 3.2 0.00 0.10 0.10 85 1007.6
20260505231628 16 157 0.0 3.2 0.00 0.10 0.10 85 1007.7
20260505231127 16 134 0.0 3.2 0.00 0.10 0.10 85 1007.7
20260505230625 16 130 3.2 3.2 0.00 0.10 0.10 83 1007.4
20260505230121 16 149 0.0 3.2 0.00 0.10 0.10 83 1007.4
20260505225617 16 151 3.2 3.2 0.00 0.10 0.10 86 1007.4
20260505225114 16 124 3.2 3.2 0.00 0.10 0.10 87 1007.5
20260505224610 16 0 1.6 3.2 0.00 0.10 0.10 87 1007.7
20260505224108 16 231 0.0 4.8 0.00 0.10 0.10 84 1007.6
20260505223605 16 255 3.2 8.0 0.05 0.10 0.10 83 1007.4
20260505223101 16 254 1.6 8.0 0.13 0.10 0.10 83 1007.4
20260505222558 17 114 1.6 12.9 0.05 0.10 0.10 81 1007.3
20260505222054 17 132 3.2 8.0 0.00 0.08 0.08 76 1007.3
20260505221551 17 143 4.8 9.7 0.00 0.08 0.08 75 1007.6
20260505221047 17 176 6.4 9.7 0.00 0.08 0.08 77 1007.5
20260505220545 18 121 3.2 6.4 0.00 0.08 0.08 75 1006.7
20260505220043 18 146 0.0 3.2 0.00 0.08 0.08 75 1006.6
20260505215540 18 108 0.0 6.4 0.00 0.08 0.08 75 1007.1
20260505215038 18 160 3.2 4.8 0.00 0.08 0.08 74 1006.9
20260505214536 18 155 0.0 3.2 0.00 0.08 0.08 72 1006.7
20260505214032 18 256 4.8 8.0 0.00 0.08 0.08 72 1006.9
20260505213530 18 105 0.0 8.0 0.00 0.08 0.08 70 1006.4
20260505213026 18 143 3.2 4.8 0.00 0.08 0.08 72 1006.5
20260505212523 19 186 3.2 8.0 0.00 0.08 0.08 72 1006.6
20260505212020 19 254 3.2 4.8 0.00 0.08 0.08 71 1006.5
20260505211517 18 134 3.2 6.4 0.00 0.08 0.08 73 1006.4
20260505211014 18 230 3.2 8.0 0.00 0.08 0.08 76 1006.4
20260505210510 18 229 3.2 6.4 0.00 0.08 0.08 74 1006.4
20260505210008 17 169 1.6 9.7 0.00 0.08 0.08 74 1006.4
20260505205506 17 261 4.8 8.0 0.00 0.08 0.08 78 1006.6
20260505205003 17 132 8.0 11.3 0.00 0.08 0.08 79 1006.7
20260505204500 17 232 3.2 6.4 0.00 0.08 0.08 80 1006.5
20260505203957 16 104 3.2 6.4 0.00 0.08 0.08 84 1006.5
20260505203453 16 86 3.2 4.8 0.00 0.08 0.08 85 1006.9
20260505202950 16 110 1.6 3.2 0.00 0.08 0.08 90 1006.7
20260505202447 15 355 3.2 3.2 0.00 0.08 0.08 91 1007.0
20260505201943 15 309 0.0 3.2 0.00 0.08 0.08 91 1007.1
20260505201440 15 22 4.8 8.0 0.00 0.08 0.08 91 1006.9
20260505200938 15 313 1.6 8.0 0.00 0.08 0.08 90 1007.0
20260505200435 15 315 6.4 17.7 0.05 0.08 0.08 89 1007.2
20260505195930 15 326 4.8 12.9 0.05 0.08 0.08 90 1007.5
20260505195428 15 328 4.8 16.1 0.00 0.08 0.08 88 1007.5
20260505194925 15 319 4.8 22.5 0.23 0.08 0.08 89 1007.9
20260505194423 15 242 17.7 29.0 0.23 0.08 0.08 87 1008.2
20260505193922 17 307 16.1 46.7 0.00 0.03 0.03 76 1007.5
20260505193420 22 234 17.7 17.7 0.00 0.03 0.03 41 1006.0
20260505192918 23 218 3.2 25.7 0.00 0.03 0.03 38 1005.5
20260505192416 23 205 14.5 41.8 0.00 0.03 0.03 37 1005.3
20260505191913 23 208 22.5 32.2 0.00 0.03 0.03 37 1005.2
20260505191412 23 167 4.8 33.8 0.00 0.03 0.03 37 1004.9
20260505190908 25 210 3.2 19.3 0.00 0.03 0.03 38 1005.2
20260505190404 25 214 4.8 17.7 0.00 0.03 0.03 39 1005.1
20260505185859 24 161 4.8 20.9 0.00 0.03 0.03 40 1005.2
20260505185356 23 223 4.8 24.1 0.00 0.03 0.03 45 1005.3
20260505184852 23 232 3.2 19.3 0.00 0.03 0.03 45 1005.1
20260505184349 23 162 4.8 20.9 0.00 0.03 0.03 45 1005.4
20260505183846 23 221 11.3 33.8 0.00 0.03 0.03 46 1005.4
20260505183343 23 180 6.4 25.7 0.00 0.03 0.03 45 1005.4
20260505182840 23 210 6.4 24.1 0.00 0.03 0.03 45 1005.7
20260505182337 23 234 8.0 30.6 0.00 0.03 0.03 45 1005.8
20260505181834 23 227 11.3 24.1 0.00 0.03 0.03 45 1005.9
20260505181331 23 159 9.7 24.1 0.00 0.03 0.03 46 1006.1
20260505180827 23 147 17.7 24.1 0.00 0.03 0.03 46 1006.1
20260505180324 23 167 8.0 17.7 0.00 0.03 0.03 44 1006.2
20260505175820 23 235 11.3 17.7 0.00 0.03 0.03 45 1006.2
20260505175317 23 244 19.3 22.5 0.00 0.03 0.03 46 1006.5
20260505174813 23 257 12.9 17.7 0.00 0.03 0.03 46 1006.3
20260505174311 23 252 14.5 14.5 0.00 0.03 0.03 47 1006.4
20260505173806 23 165 3.2 20.9 0.00 0.03 0.03 47 1006.4
20260505173303 22 236 14.5 20.9 0.00 0.03 0.03 47 1006.5
20260505172800 22 167 0.0 24.1 0.00 0.03 0.03 48 1006.4
20260505172257 22 127 8.0 25.7 0.00 0.03 0.03 46 1006.4
20260505171752 22 190 3.2 11.3 0.00 0.03 0.03 48 1006.6
20260505171249 22 241 17.7 19.3 0.00 0.03 0.03 48 1006.5
20260505170746 22 211 4.8 17.7 0.00 0.03 0.03 48 1006.4
20260505170243 22 180 8.0 25.7 0.00 0.03 0.03 47 1006.3
20260505165738 22 89 3.2 25.7 0.00 0.03 0.03 47 1006.1
20260505165234 23 211 11.3 20.9 0.00 0.03 0.03 45 1005.9
20260505164730 22 193 6.4 22.5 0.00 0.03 0.03 46 1006.2
20260505164227 22 254 12.9 27.4 0.00 0.03 0.03 45 1006.3
20260505163725 22 262 3.2 11.3 0.00 0.03 0.03 46 1006.1
20260505163224 22 241 14.5 20.9 0.00 0.03 0.03 45 1006.4
20260505162721 22 195 9.7 17.7 0.00 0.03 0.03 45 1006.4
20260505162218 22 225 14.5 22.5 0.00 0.03 0.03 45 1006.6
20260505161715 22 265 8.0 14.5 0.00 0.03 0.03 46 1006.6
20260505161212 22 251 11.3 16.1 0.00 0.03 0.03 45 1006.5
20260505160710 23 161 6.4 12.9 0.00 0.03 0.03 45 1006.6
20260505160207 23 246 6.4 22.5 0.00 0.03 0.03 45 1006.7
20260505153146 22 186 6.4 30.6 0.00 0.03 0.03 46 1006.9
20260505152643 23 148 8.0 25.7 0.00 0.03 0.03 45 1006.9
20260505152138 22 195 12.9 37.0 0.00 0.03 0.03 47 1006.9
20260505151634 22 189 16.1 35.4 0.00 0.03 0.03 46 1006.7
20260505151132 22 226 3.2 22.5 0.00 0.03 0.03 47 1006.6
20260505150627 22 177 8.0 27.4 0.00 0.03 0.03 46 1006.7
20260505150125 22 183 14.5 25.7 0.00 0.03 0.03 48 1006.7
20260505140553 20 243 14.5 20.9 0.00 0.03 0.03 52 1007.1
20260505125007 16 161 4.8 14.5 0.00 0.03 0.03 65 1007.9
20260505124503 16 111 16.1 17.7 0.00 0.03 0.03 66 1007.9
20260505124000 16 129 3.2 17.7 0.00 0.03 0.03 68 1008.0
20260505123456 16 135 3.2 9.7 0.00 0.03 0.03 69 1007.8
20260505122952 16 233 0.0 9.7 0.00 0.03 0.03 69 1007.9
20260505122450 15 188 3.2 11.3 0.00 0.03 0.03 72 1007.8
20260505121946 15 244 8.0 12.9 0.00 0.03 0.03 71 1007.6
20260505121444 15 149 4.8 11.3 0.00 0.03 0.03 74 1008.0
20260505120939 15 225 4.8 8.0 0.00 0.03 0.03 73 1007.7
20260505120436 15 134 4.8 11.3 0.00 0.03 0.03 73 1007.7
20260505115935 15 150 4.8 8.0 0.00 0.03 0.03 74 1007.6
20260505115432 15 175 3.2 11.3 0.00 0.03 0.03 75 1007.5
20260505114930 15 97 1.6 9.7 0.00 0.03 0.03 74 1007.3
20260505114426 15 119 0.0 14.5 0.00 0.03 0.03 73 1007.4
20260505113922 15 179 8.0 25.7 0.00 0.03 0.03 73 1007.7
20260505113419 13 221 8.0 14.5 0.00 0.03 0.03 76 1007.4
20260505112915 14 176 4.8 12.9 0.13 0.03 0.03 75 1007.5
20260505112413 13 299 1.6 16.1 0.18 0.03 0.03 75 1007.7
20260505111908 15 225 8.0 14.5 0.05 0.00 0.00 70 1008.0
20260505111403 15 249 4.8 9.7 0.00 0.00 0.00 66 1007.6
20260505110859 15 125 4.8 6.4 0.00 0.00 0.00 66 1007.9
20260505110357 15 134 4.8 6.4 0.00 0.00 0.00 66 1008.0
20260505101827 15 41 1.6 9.7 0.00 0.00 0.00 64 1007.5
20260505101322 14 189 4.8 11.3 0.00 0.00 0.00 65 1007.6
20260505100818 13 97 0.0 4.8 0.00 0.00 0.00 66 1007.5
20260505100315 13 131 3.2 4.8 0.00 0.00 0.00 67 1007.3
20260505095811 13 142 0.0 3.2 0.00 0.00 0.00 67 1007.2
20260505095309 14 137 3.2 6.4 0.00 0.00 0.00 66 1007.1
20260505094804 13 115 3.2 4.8 0.00 0.00 0.00 66 1007.3
20260505094301 14 165 1.6 4.8 0.00 0.00 0.00 65 1007.1
20260505093757 14 120 4.8 6.4 0.00 0.00 0.00 65 1006.9
20260505093255 14 139 3.2 4.8 0.00 0.00 0.00 64 1007.1
20260505092751 14 121 3.2 8.0 0.00 0.00 0.00 64 1007.0
20260505092250 14 193 3.2 6.4 0.00 0.00 0.00 63 1006.9
20260505091747 14 138 4.8 6.4 0.00 0.00 0.00 64 1006.7
20260505091245 14 115 4.8 8.0 0.00 0.00 0.00 63 1006.7
20260505090742 14 129 3.2 4.8 0.00 0.00 0.00 63 1006.5
20260505090240 14 143 3.2 6.4 0.00 0.00 0.00 63 1006.6
20260505085738 14 130 4.8 9.7 0.00 0.00 0.00 63 1006.7
20260505085236 14 128 3.2 14.5 0.00 0.00 0.00 63 1006.7
20260505084732 15 86 1.6 9.7 0.00 0.00 0.00 62 1006.9
20260505084232 14 192 6.4 8.0 0.00 0.00 0.00 62 1006.5
20260505083728 14 115 3.2 9.7 0.00 0.00 0.00 62 1006.4
20260505083225 14 159 3.2 6.4 0.00 0.00 0.00 63 1006.5
20260505082721 14 135 4.8 11.3 0.00 0.00 0.00 62 1006.6
20260505082219 15 124 3.2 9.7 0.00 0.00 0.00 61 1006.6
20260505081714 14 149 8.0 9.7 0.00 0.00 0.00 61 1006.5
20260505081212 15 126 8.0 8.0 0.00 0.00 0.00 61 1006.7
20260505080709 15 158 6.4 8.0 0.00 0.00 0.00 61 1006.5
20260505080204 15 145 4.8 4.8 0.00 0.00 0.00 61 1006.7
20260505075700 15 152 0.0 4.8 0.00 0.00 0.00 60 1006.7
20260505075157 15 126 4.8 8.0 0.00 0.00 0.00 60 1007.0
20260505074654 15 127 6.4 9.7 0.00 0.00 0.00 60 1006.7
20260505074151 15 139 3.2 9.7 0.00 0.00 0.00 59 1006.9
20260505073649 15 132 3.2 4.8 0.00 0.00 0.00 60 1006.7
20260505073147 15 141 3.2 8.0 0.00 0.00 0.00 59 1006.7
20260505072642 15 140 3.2 6.4 0.00 0.00 0.00 59 1006.7
20260505072139 15 177 3.2 4.8 0.00 0.00 0.00 59 1006.7
20260505071634 15 89 3.2 6.4 0.00 0.00 0.00 58 1006.7
20260505071133 15 124 0.0 8.0 0.00 0.00 0.00 57 1007.0
20260505070629 15 127 3.2 4.8 0.00 0.00 0.00 58 1006.7
20260505070126 15 141 3.2 6.4 0.00 0.00 0.00 57 1006.9
20260505065622 15 186 3.2 8.0 0.00 0.00 0.00 57 1006.6
20260505065118 15 159 6.4 9.7 0.00 0.00 0.00 57 1006.7
20260505064615 15 221 4.8 6.4 0.00 0.00 0.00 57 1007.0
20260505064114 15 159 3.2 9.7 0.00 0.00 0.00 57 1007.0
20260505063611 15 148 3.2 14.5 0.00 0.00 0.00 57 1007.0
20260505063106 15 141 3.2 4.8 0.00 0.00 0.00 58 1007.2
20260505062603 15 127 4.8 8.0 0.00 0.00 0.00 57 1007.1
20260505062101 15 110 0.0 12.9 0.00 0.00 0.00 57 1007.0
20260505061558 15 170 3.2 16.1 0.00 0.00 0.00 55 1006.9
20260505061056 15 140 3.2 11.3 0.00 0.00 0.00 56 1006.9
20260505060553 15 135 1.6 11.3 0.00 0.00 0.00 57 1007.0
20260505060050 15 101 3.2 20.9 0.00 0.00 0.00 55 1006.7